Tracking 25648 objects as of 16-May-2022
HD Live streaming from Space Station
objects crossing your sky now

COSMOS 2251 DEB

Track COSMOS 2251 DEB now!
10-day predictions


NORAD ID: 37530
Int'l Code: 1993-036BNK
Perigee: 771.7 km
Apogee: 812.7 km
Inclination: 74.0 °
Period: 100.6 minutes
Semi major axis: 7163 km
RCS: 0.0042 m2 (small)
Launch date: June 16, 1993
Source: Commonwealth of Independent States (former USSR) (CIS)
Launch site: PLESETSK MISSILE AND SPACE COMPLEX (PKMTR)

Note: This is SATELLITE DEBRIS
aabbcc
Your satellite tracking list
Your tracking list is empty




NASA's NSSDC Master Catalog

Two Line Element Set (TLE):
1 37530U 93036BNK 22135.88553535  .00000471  00000-0  18442-3 0  9998
2 37530  74.0366 201.4799 0028640 225.4123 252.9055 14.31990515665112
Source of the keplerian elements: AFSPC